This is the latest recevied weather packets stored in our database for station/object G4WLC-1. If no packets are shown the sender has not sent any weather packets the latest 10 day(s).
| Time | Temp. | Humidity | Pressure | Rain* | Wind** | Luminosity | Snow |
|---|---|---|---|---|---|---|---|
| 1778071081 | 13.89° C | 60% | 1014.6 hPa | 0 mm | - | - | - |
| 1778070781 | 14.44° C | 60% | 1014.5 hPa | 0 mm | - | - | - |
| 1778070481 | 14.44° C | 59% | 1014.5 hPa | 0 mm | - | - | - |
| 1778070181 | 13.89° C | 59% | 1014.4 hPa | 0 mm | - | - | - |
| 1778069881 | 13.89° C | 57% | 1014.5 hPa | 0 mm | - | - | - |
| 1778069581 | 14.44° C | 66% | 1014.4 hPa | 0 mm | - | - | - |
| 1778069281 | 13.33° C | 61% | 1014.7 hPa | 0 mm | - | - | - |
| 1778068981 | 13.33° C | 60% | 1014.6 hPa | 0 mm | - | - | - |
| 1778068681 | 13.33° C | 60% | 1014.8 hPa | 0 mm | - | - | - |
| 1778068381 | 13.33° C | 61% | 1014.8 hPa | 0 mm | - | - | - |
| 1778068081 | 13.33° C | 61% | 1014.8 hPa | 0 mm | - | - | - |
| 1778067781 | 13.33° C | 60% | 1014.8 hPa | 0 mm | - | - | - |
| 1778067481 | 13.33° C | 62% | 1014.8 hPa | 0 mm | - | - | - |
| 1778067181 | 12.78° C | 61% | 1014.9 hPa | 0 mm | - | - | - |
| 1778066881 | 12.78° C | 65% | 1014.9 hPa | 0 mm | - | - | - |
| 1778066581 | 12.78° C | 61% | 1014.8 hPa | 0 mm | - | - | - |
| 1778066281 | 12.78° C | 64% | 1014.8 hPa | 0 mm | - | - | - |
| 1778065981 | 12.78° C | 64% | 1014.7 hPa | 0 mm | - | - | - |
| 1778065681 | 12.78° C | 64% | 1014.7 hPa | 0 mm | - | - | - |
| 1778065381 | 12.78° C | 66% | 1014.6 hPa | 0 mm | - | - | - |
| 1778065081 | 12.78° C | 66% | 1014.8 hPa | 0 mm | - | - | - |
| 1778064781 | 12.78° C | 66% | 1014.9 hPa | 0 mm | - | - | - |
| 1778064481 | 12.78° C | 67% | 1014.8 hPa | 0 mm | - | - | - |
| 1778064181 | 12.78° C | 66% | 1014.8 hPa | 0 mm | - | - | - |
| 1778063881 | 12.78° C | 66% | 1014.8 hPa | 0 mm | - | - | - |
* Rain latest hour (hover to see other rain measurements)
** Current wind speed in m/s (hover to see current wind gust speed)